Location: Gwatt
(46.7204°N, 7.6223°E)
Time: 18:00:37
(UTC+00:00)

Transit 2A - Pass Details

Date: 28 January 2021
Orbit: 600 x 958 km, 66.7° (Epoch: 25 February)

Event Time Altitude Azimuth Distance (km) Brightness Sun altitude
Rises 05:21:14 0° 284° (WNW) 3,332 - -16.7°
Reaches altitude 10° 05:25:50 10° 319° (NW) 2,297 - -15.9°
Exits shadow 05:26:53 11° 330° (NNW) 2,204 8.0 -15.7°
Maximum altitude 05:27:20 11° 336° (NNW) 2,187 8.0 -15.6°
Drops below altitude 10° 05:28:48 10° 353° (N) 2,230 8.2 -15.4°
Sets 05:33:02 0° 29° (NNE) 3,056 9.4 -14.7°
